AirNav   Everest Fuels
 
 499 users online  

52VA Building 250 Heliport
Manassas, Virginia, USA

GOING TO MANASSAS?


FAA INFORMATION EFFECTIVE 21 MAY 2020

Location

FAA Identifier: 52VA
Lat/Long: 38-45-35.4150N 077-30-22.9620W
38-45.590250N 077-30.382700W
38.7598375,-77.5063783
(estimated)
Elevation: 230 ft. / 70.1 m (surveyed)
Variation: 09W (1985)
From city: 1 mile SW of MANASSAS, VA
Time zone: UTC -4 (UTC -5 during Standard Time)
Zip code: 20109

Heliport Operations

Heliport use: Private use. Permission required prior to landing
Activation date: 08/1986
Control tower: no
ARTCC: WASHINGTON CENTER
FSS: LEESBURG FLIGHT SERVICE STATION
Attendance: UNATNDD
Segmented circle: yes

Heliport Communications

WX AWOS-3PT at HEF (2.4 nm S): PHONE 703-361-6160
WX ASOS at IAD (11 nm N): PHONE 703-661-2990
WX AWOS-3 at HWY (14 nm SW): 120.350 (540-788-4078)
WX AWOS-3 at JYO (19 nm N): 125.225 (703-777-3781)

Nearby radio navigation aids

VOR radial/distance  VOR name  Freq  Var
AMLr198/10.6ARMEL VOR/DME113.5008W
CSNr073/18.3CASANOVA VORTAC116.3006W
DCAr264/22.8WASHINGTON VOR/DME111.0009W
BRVr353/26.4BROOKE VORTAC114.5009W
ADWr275/30.1ANDREWS VORTAC113.1010W
LDNr106/33.2LINDEN VORTAC114.3006W
OTTr285/35.8NOTTINGHAM VORTAC113.7010W
FDKr197/(39.6)FREDERICK VOR109.0008W

 
NDB name  Hdg/Dist  Freq  Var  ID
DAVEE297/19.522309WDAA -.. .- .-
GEORGETOWN249/20.632309WGTN --. - -.
OXONN280/22.433211WDCA -.. -.-. .-
NAILR056/26.235110WMSQ -- ... --.-
SHANNON005/29.723710WEZF . --.. ..-.

Heliport Services

Runway Information

Helipad H2

Dimensions: 190 x 125 ft. / 58 x 38 m
Surface: asphalt
Traffic pattern: leftleft

Heliport Ownership and Management from official FAA records

Ownership: Privately-owned
Owner: LOCKHEED MARTIN
9500 GOODWIN DRIVE
MANASSAS, VA 22110
Phone 703-367-3090
Manager: LOCKHEED MARTIN
9500 GOODWIN DRIVE
MANASSAS, VA 22110
Phone 703-367-3980

Additional Remarks

HELIPORT USED FOR EMERGENCY PURPOSES ONLY.
FOR CD CTC POTOMAC APCH AT 866-709-4993.

Instrument Procedures

There are no published instrument procedures at 52VA.

Some nearby airports with instrument procedures:

KHEF - Manassas Regional Airport/Harry P. Davis Field (2 nm S)
KIAD - Washington Dulles International Airport (11 nm N)
KHWY - Warrenton-Fauquier Airport (14 nm SW)
KDAA - Davison Army Airfield (15 nm E)
KNYG - Quantico Marine Corps Airfield / Turner Field (18 nm SE)
KJYO - Leesburg Executive Airport (19 nm N)
 
Loc | Ops | Rwys | IFR | FBO | Links
Com | Nav | Svcs | Stats | Notes
Area around 52VA (Building 250 Heliport)
 
Road maps at: MapQuest Bing Google
 
Aerial photo
No photo
 
Sectional chart

 
Airport distance calculator
Flying to Building 250 Heliport? Find the distance to fly.

From to 52VA

Sunrise and sunset
Times for 31-May-2020
 Local
(UTC-4)
 Zulu
(UTC)
Morning civil twilight05:1709:17
Sunrise05:4809:48
Sunset20:2800:28
Evening civil twilight20:5900:59

Current date and time
Zulu (UTC)  31-May-2020 11:15:33
Local (UTC-4)  31-May-2020 07:15:33
 
METAR
KHEF 
3nm S 
311056Z AUTO 35005KT 10SM CLR 15/06 A3013 RMK AO2 SLP208 T01500061
KIAD 
11nm N 
311052Z 34005KT 10SM FEW100 14/05 A3013 RMK AO2 SLP200 T01440050
KHWY 
14nm SW 
311055Z AUTO 35004KT 10SM CLR 15/05 A3013 RMK AO2 T01500048
KDAA 
16nm E 
311056Z AUTO 32006KT 10SM CLR 16/04 A3012 RMK AO2 SLP202 T01620042 TSNO $
KJYO 
19nm N 
311055Z AUTO 00000KT 10SM CLR 13/07 A3014 RMK AO2
KNYG 
19nm SE 
311056Z AUTO 33008KT 8SM CLR 16/06 A3013 RMK AO2 SLP203 T01610056 $
TAF
KIAD 
11nm N 
310854Z 3109/0112 33009KT P6SM FEW200 FM311400 34010G16KT P6SM SKC FM312200 32008KT P6SM SKC
KNYG 
19nm SE 
3021/3121 25009KT 9999 SCT020 OVC030 QNH2995INS FM310000 22009KT VCSH 9999 BKN025 QNH2991INS T27/3020Z T19/3111Z LAST NO AMDS NEXT 0109Z
NOTAMs
Click for the latest NOTAMs
NOTAMs are issued by the DoD/FAA and will open in a separate window not controlled by AirNav.

 

 
 

Would you like to see your business listed on this page?

 If your business provides an interesting product or service to pilots, flight crews, aircraft, or users of the Building 250 Heliport, you should consider listing it here.  To start the listing process, click on the button below
 
Add a business
 

Other Pages about Building 250 Heliport

Update a link
 
Copyright © AirNav, LLC. All rights reserved. Privacy Policy  Contact